Weather History for Three Rivers, MI

Change the Weather History Date:

Saturday, July 28, 2012

  Actual Average Record
Temperature  
Mean Temperature 72 °F -  
Max Temperature 81 °F 83 °F 96 °F (1955)
Min Temperature 63 °F 59 °F 51 °F (1978)
Cooling Degree Days 7    
Growing Degree Days 22 (Base 50)    
Moisture  
Dew Point 58 °F    
Average Humidity 64    
Maximum Humidity 90    
Minimum Humidity 33    
Precipitation  
Precipitation 0.00 in - - ()
Sea Level Pressure  
Sea Level Pressure 30.07 in    
Wind  
Wind Speed 4 mph (North)    
Max Wind Speed 13 mph    
Max Gust Speed 17 mph    
Visibility 10 miles    
Events      
Averages and records for this station are not official NWS values.
T = Trace of Precipitation, MM = Missing Value Source: NWS Daily Summary

Daily Weather History Graph

Daily Weather History Graph

Search for Another Location

Airport:

Trip Planner

Search our weather history database for the weather conditions in past years. The results will help you decide how hot, cold, wet, or windy it might be!

Date:

Astronomy

Jul. 28, 2012 Rise Set
Actual Time 6:32 AM EDT 9:04 PM EDT
Civil Twilight 6:00 AM EDT 9:36 PM EDT
Nautical Twilight 5:20 AM EDT 10:16 PM EDT
Astronomical Twilight 4:35 AM EDT 11:00 PM EDT
Moon 5:09 PM EDT (7/28) 1:50 AM EDT (7/28)
Length of Visible Light 15h 35m
Length of Day
14h 32m
Waxing Gibbous, 75% of the Moon is Illuminated
Jul 28
Waxing Gibbous
Aug 1
Full
Aug 9
Last Quarter
Aug 17
New
Aug 24
First Quarter

Hourly Weather History & Observations

Time (EDT) Temp. Dew Point Humidity Pressure Visibility Wind Dir Wind Speed Gust Speed Precip Events Conditions
12:32 AM 66.2 °F 62.6 °F 88% 29.96 in 10.0 mi Calm Calm - N/A   Clear
12:52 AM 66.0 °F 63.0 °F 90% 29.97 in 10.0 mi NNW 3.5 mph - N/A   Mostly Cloudy
1:33 AM 66.2 °F 63.1 °F 90% 29.98 in 10.0 mi Calm Calm - N/A   Overcast
1:52 AM 66.4 °F 63.1 °F 89% 29.98 in 10.0 mi Calm Calm - N/A   Overcast
2:12 AM 66.6 °F 62.8 °F 88% 29.98 in 10.0 mi North 3.5 mph - N/A   Overcast
2:33 AM 66.6 °F 61.9 °F 85% 29.98 in 10.0 mi North 4.6 mph - N/A   Overcast
2:52 AM 66.4 °F 61.9 °F 85% 29.98 in 10.0 mi North 3.5 mph - N/A   Overcast
3:12 AM 66.6 °F 61.5 °F 84% 29.99 in 10.0 mi North 3.5 mph - N/A   Overcast
3:32 AM 66.4 °F 61.7 °F 85% 29.99 in 10.0 mi North 3.5 mph - N/A   Overcast
3:52 AM 66.4 °F 61.5 °F 84% 29.99 in 10.0 mi North 3.5 mph - N/A   Overcast
4:13 AM 66.4 °F 61.5 °F 84% 30.00 in 10.0 mi NNW 5.8 mph - N/A   Overcast
4:32 AM 66.4 °F 61.9 °F 85% 30.00 in 10.0 mi NNW 3.5 mph - N/A   Overcast
4:53 AM 66.4 °F 62.2 °F 86% 30.01 in 10.0 mi NNW 4.6 mph - N/A   Overcast
5:12 AM 66.4 °F 62.2 °F 86% 30.02 in 10.0 mi North 4.6 mph - N/A   Overcast
5:32 AM 66.4 °F 61.9 °F 85% 30.02 in 10.0 mi North 3.5 mph - N/A   Overcast
5:53 AM 65.5 °F 61.3 °F 86% 30.04 in 10.0 mi North 3.5 mph - N/A   Scattered Clouds
6:12 AM 64.6 °F 61.0 °F 88% 30.04 in 10.0 mi NNW 5.8 mph - N/A   Clear
6:32 AM 64.0 °F 60.8 °F 89% 30.05 in 10.0 mi NNW 4.6 mph - N/A   Clear
6:53 AM 63.5 °F 60.4 °F 90% 30.05 in 10.0 mi North 4.6 mph - N/A   Clear
7:12 AM 63.5 °F 60.4 °F 90% 30.06 in 10.0 mi Calm Calm - N/A   Clear
7:32 AM 64.0 °F 60.3 °F 87% 30.07 in 10.0 mi NNW 3.5 mph - N/A   Clear
7:53 AM 64.8 °F 59.9 °F 84% 30.07 in 10.0 mi Calm Calm - N/A   Clear
8:32 AM 66.7 °F 60.3 °F 80% 30.08 in 10.0 mi North 3.5 mph - N/A   Clear
8:52 AM 67.6 °F 60.4 °F 78% 30.08 in 10.0 mi North 3.5 mph - N/A   Clear
9:12 AM 68.7 °F 60.3 °F 74% 30.08 in 10.0 mi NNE 4.6 mph - N/A   Clear
9:33 AM 69.8 °F 59.4 °F 69% 30.08 in 10.0 mi North 8.1 mph - N/A   Clear
9:52 AM 70.7 °F 58.8 °F 66% 30.08 in 10.0 mi NNE 6.9 mph - N/A   Clear
10:12 AM 71.6 °F 57.7 °F 62% 30.09 in 10.0 mi North 9.2 mph - N/A   Clear
10:33 AM 73.4 °F 57.9 °F 58% 30.10 in 10.0 mi North 5.8 mph - N/A   Clear
10:52 AM 74.1 °F 57.4 °F 56% 30.11 in 10.0 mi North 8.1 mph - N/A   Clear
11:12 AM 74.3 °F 56.5 °F 54% 30.11 in 10.0 mi North 8.1 mph - N/A   Clear
11:33 AM 75.4 °F 55.0 °F 49% 30.11 in 10.0 mi North 10.4 mph - N/A   Clear
11:52 AM 75.9 °F 54.5 °F 47% 30.12 in 10.0 mi North 10.4 mph 17.3 mph N/A   Clear
12:12 PM 77.0 °F 53.6 °F 44% 30.12 in 10.0 mi North 8.1 mph - N/A   Clear
12:33 PM 77.0 °F 51.4 °F 41% 30.11 in 10.0 mi NNE 9.2 mph - N/A   Clear
12:52 PM 78.1 °F 51.1 °F 39% 30.10 in 10.0 mi NNE 12.7 mph 16.1 mph N/A   Clear
1:13 PM 78.8 °F 52.5 °F 40% 30.10 in 10.0 mi NNE 9.2 mph - N/A   Clear
1:32 PM 78.8 °F 52.0 °F 39% 30.10 in 10.0 mi North 4.6 mph 10.4 mph N/A   Clear
1:53 PM 79.3 °F 52.5 °F 39% 30.10 in 10.0 mi NNE 10.4 mph - N/A   Clear
2:12 PM 79.9 °F 52.7 °F 39% 30.10 in 10.0 mi NE 10.4 mph - N/A   Clear
2:32 PM 79.7 °F 52.0 °F 38% 30.10 in 10.0 mi NNE 5.8 mph - N/A   Clear
2:53 PM 80.2 °F 51.6 °F 37% 30.10 in 10.0 mi ENE 11.5 mph - N/A   Clear
3:12 PM 80.4 °F 51.4 °F 36% 30.10 in 10.0 mi North 4.6 mph - N/A   Clear
3:32 PM 81.0 °F 52.0 °F 36% 30.10 in 10.0 mi North 8.1 mph - N/A   Clear
3:53 PM 81.5 °F 52.3 °F 36% 30.10 in 10.0 mi North 6.9 mph - N/A   Clear
4:12 PM 81.9 °F 50.9 °F 34% 30.11 in 10.0 mi NNW 5.8 mph - N/A   Scattered Clouds
4:32 PM 81.3 °F 49.8 °F 33% 30.10 in 10.0 mi NNW 3.5 mph - N/A   Clear
4:53 PM 81.3 °F 50.7 °F 34% 30.10 in 10.0 mi Calm Calm - N/A   Clear
5:12 PM 79.7 °F 50.9 °F 37% 30.10 in 10.0 mi NNW 8.1 mph - N/A   Scattered Clouds
5:33 PM 81.5 °F 51.3 °F 35% 30.10 in 10.0 mi NNE 3.5 mph - N/A   Mostly Cloudy
5:52 PM 81.3 °F 51.1 °F 35% 30.10 in 10.0 mi WNW 6.9 mph - N/A   Scattered Clouds
6:12 PM 81.5 °F 50.9 °F 34% 30.10 in 10.0 mi NW 9.2 mph - N/A   Scattered Clouds
6:52 PM 80.6 °F 52.3 °F 37% 30.10 in 10.0 mi NW 3.5 mph - N/A   Clear
7:12 PM 79.7 °F 51.3 °F 37% 30.10 in 10.0 mi NW 6.9 mph - N/A   Clear
7:52 PM 76.8 °F 56.3 °F 49% 30.10 in 10.0 mi WNW 4.6 mph - N/A   Clear
8:12 PM 76.1 °F 60.3 °F 58% 30.10 in 10.0 mi NW 4.6 mph - N/A   Clear
8:33 PM 74.8 °F 60.8 °F 62% 30.11 in 10.0 mi NW 8.1 mph - N/A   Clear
8:52 PM 73.4 °F 60.3 °F 63% 30.11 in 10.0 mi WNW 5.8 mph - N/A   Clear
9:12 PM 71.4 °F 60.3 °F 68% 30.11 in 10.0 mi WNW 4.6 mph - N/A   Clear
9:33 PM 69.3 °F 60.8 °F 74% 30.11 in 10.0 mi Calm Calm - N/A   Clear
9:52 PM 68.5 °F 60.3 °F 75% 30.11 in 10.0 mi Calm Calm - N/A   Clear
10:13 PM 67.8 °F 60.4 °F 77% 30.11 in 10.0 mi Calm Calm - N/A   Clear
10:32 PM 66.0 °F 60.3 °F 82% 30.11 in 10.0 mi Calm Calm - N/A   Clear
10:52 PM 66.2 °F 60.1 °F 81% 30.10 in 10.0 mi Calm Calm - N/A   Clear
11:32 PM 64.2 °F 59.9 °F 86% 30.11 in 10.0 mi Calm Calm - N/A   Clear
11:52 PM 63.7 °F 58.8 °F 84% 30.11 in 10.0 mi Calm Calm - N/A   Clear